Location: Unnamed
(51.5169°N, 0.1311°W)
Time: 19:51:40
(UTC+01:00)

Tiros 1 - Pass Details

Date: 06 August 2024
Orbit: 623 x 655 km, 48.4° (Epoch: 16 September)

Event Time Altitude Azimuth Distance (km) Brightness Sun altitude
Rises 13:01:54 0° 279° (W) 2,972 10.5 54.9°
Reaches altitude 10° 13:04:28 10° 268° (W) 2,054 9.9 55.0°
Maximum altitude 13:08:34 29° 208° (SSW) 1,171 9.7 55.0°
Drops below altitude 10° 13:12:37 10° 148° (SSE) 2,029 10.3 54.9°
Sets 13:15:08 0° 138° (SE) 2,929 10.9 54.9°
